Location: ????????
(52.3000°N, 54.5000°E)
Time: 03:38:19
(UTC+00:00)

Daily predictions for brighter satellites

Satellite Brightness Start Highest point End
(mag) Time Altitude Azimuth Time Altitude Azimuth Time Altitude Azimuth
ATLAS 5 CENTAUR R/B 4.0 00:24:41 20° NE 00:24:41 20° NE 00:26:23 10° NE
Cosmos 2034 Rocket 4.4 00:31:26 57° SE 00:32:12 62° E 00:38:29 10° NNE
Cosmos 1092 Rocket 4.2 00:46:49 39° N 00:49:07 67° ENE 00:55:13 10° SSE
ALOS 4.3 00:59:03 10° NE 01:03:03 27° E 01:07:01 10° SSE
CZ-2C R/B 4.4 01:02:37 10° NNE 01:03:43 17° NNE 01:03:43 17° NNE
Cosmos 2263 Rocket 3.0 01:03:25 13° S 01:08:08 48° ESE 01:13:28 10° NE
Cosmos 1624 Rocket 4.3 01:11:39 56° N 01:11:39 56° N 01:15:55 10° NNE
Cosmos 1607 4.3 01:16:43 45° NNW 01:16:43 45° NNW 01:22:07 10° NE
Cosmos 2056 Rocket 3.9 01:17:47 51° N 01:17:47 51° N 01:21:40 10° NNE
GEOS 3 Rocket 3.8 01:14:27 10° SSE 01:18:52 57° SSW 01:18:52 57° SSW
Geosat 3.8 01:15:05 10° SSE 01:20:04 84° SW 01:20:04 84° SW
ATLAS CENTAUR R/B 3.0 01:20:50 27° NNE 01:21:00 27° NNE 01:24:34 10° E
CZ-4C R/B 4.1 01:24:23 25° SW 01:24:23 25° SW 01:28:44 10° S
Okean 1 4.3 01:29:51 40° SSE 01:29:51 40° SSE 01:32:27 10° SSE
Cosmos 2297 Rocket 3.6 01:30:37 24° N 01:30:37 24° N 01:33:46 10° NNE
Cosmos 1932 4.4 01:27:52 42° SW 01:30:16 88° NW 01:36:49 10° NE
Cosmos 2227 4.2 01:28:47 31° SSW 01:31:42 87° ESE 01:37:31 10° NNE
Cosmos 1420 Rocket 4.0 01:29:38 21° SSW 01:33:11 79° ESE 01:38:23 10° NNE
Cosmos 2227 Rocket 3.5 01:35:12 24° NNW 01:35:12 24° NNW 01:38:32 10° NNE
COSMO-SKYMED 1 2.8 01:30:25 10° S 01:33:58 58° S 01:33:58 58° S
USA 234 3.5 01:29:04 10° ENE 01:35:35 68° SE 01:39:45 24° SW
Meteor 1-18 Rocket 4.0 01:33:15 33° NNW 01:35:53 82° W 01:41:28 10° S
Cosmos 2221 Rocket 3.9 01:35:33 30° N 01:37:36 65° ENE 01:41:59 10° SSE
CZ-4B R/B 4.5 01:34:56 10° NNE 01:40:16 42° E 01:45:36 10° S
Cosmos 1484 Rocket 3.0 01:36:46 10° NNE 01:46:03 - SSW 01:40:10 64° NNE
Cosmos 1741 Rocket 3.9 01:44:06 52° NW 01:45:15 70° WSW 01:50:27 10° SSE
Cosmos 2026 Rocket 3.8 01:40:44 10° NNW 01:46:52 71° W 01:53:05 10° S
Cosmos 724 4.3 01:45:40 47° W 01:47:04 59° NW 01:52:56 10° NE
Okean O Rocket 2.6 01:45:25 10° NNE 01:49:40 47° E 01:53:56 10° S
Cosmos 1943 3.7 01:51:35 39° WSW 01:51:35 39° WSW 01:56:29 10° S
PSLV R/B 3.7 01:51:06 10° N 01:55:13 74° WNW 01:59:20 10° SSW
Cosmos 1869 Rocket 3.4 01:57:54 10° SSW 02:02:13 69° WNW 02:06:36 10° N
Cosmos 2279 Rocket 4.1 01:56:15 10° S 02:02:26 78° E 02:08:42 10° NNE
Cosmos 2082 Rocket 4.1 01:58:39 11° NNW 02:02:40 21° NNE 02:06:53 10° E
Cosmos 1452 Rocket 3.4 01:57:37 10° SSW 02:02:54 79° WNW 02:08:14 10° NNE
Cosmos 1850 Rocket 4.2 02:02:42 39° WNW 02:04:12 49° WSW 02:09:19 10° S
PAYLOAD B 4.3 02:00:52 10° NNE 02:06:26 81° ESE 02:11:59 10° SSW
ATLAS 5 CENTAUR R/B 2.9 02:06:13 27° NNW 02:06:52 28° NNW 02:11:26 10° NE
Helios 1A Rocket 3.4 02:03:41 10° NNE 02:07:43 62° ESE 02:11:42 10° S
DMSP B5D1-3 4.4 02:03:09 10° SSE 02:08:19 80° WSW 02:13:18 11° NNW
Meteor 1-25 Rocket 4.2 02:04:42 10° SSW 02:10:14 56° WNW 02:15:53 10° N
Cosmos 1634 Rocket 3.9 02:06:52 10° SSW 02:12:59 61° WNW 02:19:08 10° N
NOAA 6 4.2 02:08:34 10° NNE 02:13:43 75° ESE 02:18:51 10° S
Cosmos 1674 Rocket 3.9 02:12:10 10° N 02:16:31 65° ENE 02:20:48 10° SSE
SL-24 R/B 3.9 02:14:45 10° S 02:19:04 79° WSW 02:22:43 14° NNW
Meteor 1-14 Rocket 4.3 02:14:57 10° SSW 02:20:52 66° WNW 02:26:52 10° N
Cosmos 1346 Rocket 2.6 02:21:18 10° SSW 02:25:08 61° WNW 02:29:02 10° N
Cosmos 1655 Rocket 3.9 02:21:08 10° NNW 02:27:21 72° W 02:33:31 10° S
Meteor 2-4 Rocket 3.6 02:23:14 10° NNW 02:28:42 64° W 02:34:01 10° S
SMAP 4.2 02:25:38 10° NNE 02:30:09 46° E 02:34:38 10° S
Cosmos 1378 Rocket 3.8 02:30:24 10° N 02:34:50 73° ENE 02:39:16 10° SSE
Cosmos 1340 3.0 02:34:00 10° SW 02:37:34 40° WNW 02:41:10 10° N
Cosmos 44 3.3 02:33:53 10° SW 02:38:35 77° SE 02:43:04 10° NE
Cosmos 371 Rocket 3.4 02:34:00 10° SSW 02:38:51 81° ESE 02:43:46 10° NNE
ALOS 2.5 02:36:12 10° N 02:40:41 46° WNW 02:45:09 10° SW
Cosmos 1515 4.3 02:40:34 23° NW 02:42:16 35° W 02:45:46 10° SSW
Cosmos 405 3.0 02:41:02 17° NNW 02:43:39 57° W 02:47:06 10° S
Cosmos 1500 3.1 02:40:37 10° SSW 02:44:27 83° W 02:48:18 10° N
CZ-2C R/B 4.1 02:42:07 10° NNW 02:43:06 13° NNW 02:43:06 13° NNW
Cosmos 1331 Rocket 4.0 02:43:26 10° SSW 02:48:36 88° ESE 02:53:50 10° NNE
SJ-7 4.3 02:47:36 10° N 02:51:35 61° WNW 02:55:31 10° SSW
Cosmos 2263 Rocket 2.6 02:46:58 10° WSW 02:52:12 39° NW 02:57:27 10° NNE
Cosmos 2292 Rocket 4.5 02:51:33 10° NNW 02:58:50 80° W 03:04:16 10° S
ATLAS CENTAUR R/B 1.3 02:57:02 16° NW 03:00:26 79° SW 03:04:24 10° SE
Cosmos 1110 Rocket 3.9 02:57:17 10° SW 03:02:27 69° WNW 03:07:38 10° NNE
IRIDIUM 104 4.3 02:58:58 10° N 03:04:11 73° W 03:09:23 10° S
Radarsat Rocket 4.1 02:59:54 10° NNE 03:06:01 77° WNW 03:12:51 10° SSW
FENGYUN 3A 4.1 03:01:20 10° N 03:06:15 37° WNW 03:11:10 10° SW
Cosmos 1908 Rocket 3.8 03:01:56 10° S 03:06:23 75° E 03:10:51 10° NNE
Cosmos 1833 Rocket 3.4 03:01:35 10° NNW 03:07:08 53° NE 03:12:39 10° SE
YAOGAN 6 4.1 03:03:39 10° NNE 03:07:12 42° E 03:10:44 10° S
CZ-4 R/B 3.4 03:05:38 10° NNE 03:09:08 31° E 03:12:40 10° SSE
ADEOS Rocket 3.2 03:03:20 10° S 03:10:05 63° WSW 03:16:12 10° NNW
IRIDIUM 114 4.4 03:08:07 10° N 03:13:17 62° W 03:18:25 10° SSW
Cosmos 2297 Rocket 4.1 03:12:37 10° NW 03:15:04 13° NNW 03:17:32 10° NNE
Cosmos 1486 Rocket 4.1 03:09:50 10° NNW 03:15:07 66° WSW 03:20:19 10° S
COSMOS 2406 3.2 03:09:35 10° NNW 03:15:20 84° WSW 03:21:01 10° SSE
USA 81 4.1 03:10:32 10° NNW 03:15:45 63° W 03:20:57 10° S
Cosmos 2266 Rocket 4.2 03:10:07 10° NNW 03:16:04 47° W 03:21:53 10° SSW
USA 234 3.3 03:12:12 10° ENE 03:18:41 68° NNW 03:25:09 10° W
Cosmos 2227 Rocket 4.1 03:17:25 10° NW 03:19:52 13° NNW 03:22:19 10° NNE
Feng Yun 1-1 Rocket 4.3 03:14:44 10° NNE 03:20:20 83° WNW 03:26:03 10° SSW
CZ-4B R/B 3.7 03:15:38 10° N 03:20:49 41° WNW 03:26:03 10° SW
Cosmos 44 Rocket 4.5 03:16:55 10° SSW 03:21:35 47° ESE 03:26:10 10° NE
Cosmos 1844 3.8 03:18:18 10° SSW 03:24:06 88° ESE 03:29:55 10° NNE
Cosmos 1844 Rocket 2.6 03:18:36 10° SW 03:24:12 77° WNW 03:29:49 10° NNE
NOAA 12 4.2 03:18:55 10° NNE 03:24:12 82° ESE 03:29:27 10° SSW
Okean O Rocket 2.6 03:22:12 10° N 03:25:50 26° WNW 03:29:28 10° WSW
NOSS 3-2 (C) 4.5 03:22:10 10° SSW 03:27:49 52° SE 03:34:14 10° NE
Cosmos 1666 2.6 03:24:54 10° SSW 03:28:41 64° WNW 03:32:29 10° N
Cosmos 1733 Rocket 3.8 03:25:01 10° SW 03:28:51 31° WNW 03:32:45 10° N
Envisat 3.1 03:24:24 10° NNE 03:29:31 83° ESE 03:34:37 10° SSW
Cosmos 1378 3.7 03:27:57 10° N 03:31:42 61° ENE 03:35:25 10° SSE
ATLAS 3B R/B 4.3 03:26:39 10° S 03:32:46 39° ESE 03:38:51 10° NE
Cosmos 1536 3.3 03:32:39 10° SW 03:36:28 39° WNW 03:40:19 10° N
Meteor 1-4 Rocket 3.7 03:33:18 10° N 03:36:57 46° ENE 03:40:32 10° SSE
Cosmos 304 Rocket 3.8 03:35:27 10° SW 03:40:12 66° WNW 03:45:00 10° NNE
Helios 1A Rocket 4.3 03:39:42 10° NNW 03:42:30 18° WNW 03:45:17 10° WSW
SL-23 DEB 3.8 03:40:58 10° WSW 03:44:08 72° S 03:48:18 10° E
Meteor 1-11 Rocket 4.2 03:40:34 10° SW 03:46:03 42° WNW 03:51:41 10° N
Cosmos 2082 Rocket 2.5 03:42:11 10° NNW 03:47:50 69° NE 03:53:26 10° SE
